Dewpoint
55 55 55 56 56 56 56 56 56 56 56 57 57 58 58 58 57 55 38 31 30 37 30 18 30 31 21 20 20 47 46 43 41 41 35 36 43 45 45 46 50 55 56 59 61
54 54 55 55 55 55 55 55 56 56 56 57 57 58 58 58 54 45 40 33 28 30 7 29 28 17 14 15 40 44 42 42 42 32 26 29 43 43 42 39 47 57 59 59 61
54 54 54 54 54 55 55 55 55 55 56 56 57 58 58 57 52 41 44 41 31 27 19 34 30 22 20 23 39 36 30 31 33 25 23 26 40 44 43 41 43 56 58 60 60
53 53 53 53 53 53 54 54 54 55 55 56 58 59 58 55 39 34 40 32 31 38 35 35 24 20 20 23 39 34 34 34 26 24 26 26 26 42 45 45 45 56 58 59 60
52 52 53 52 53 53 53 53 54 54 55 57 58 59 51 44 43 38 39 36 40 37 37 27 22 19 20 24 31 29 34 33 25 26 26 28 31 32 44 47 48 57 58 59 59
52 52 52 52 52 53 53 53 53 54 55 57 58 57 49 36 39 32 33 33 34 36 22 22 24 24 22 22 26 29 27 26 26 26 29 29 33 38 44 49 51 55 57 58 59
51 51 51 51 52 52 53 53 52 52 54 58 57 53 41 27 37 34 39 31 32 23 17 23 25 24 23 19 24 26 24 24 25 26 28 28 29 31 42 52 54 57 57 58 59
51 51 51 51 52 52 52 52 51 51 54 59 58 51 36 32 33 36 35 29 24 21 16 26 27 25 23 20 20 19 20 21 28 27 26 25 26 33 38 46 52 55 57 58 59
50 50 51 51 52 52 52 50 50 51 55 59 54 47 37 24 23 30 32 27 23 19 17 23 22 21 21 18 14 14 13 17 27 26 26 16 24 32 35 40 46 51 53 59 59
50 50 51 51 51 52 51 44 47 50 51 53 48 38 37 27 20 19 30 27 21 16 17 22 21 19 18 16 10 10 13 17 27 26 24 17 16 31 37 40 48 51 54 59 58
50 50 51 51 51 51 48 35 42 43 39 36 31 20 21 26 21 21 28 26 21 15 12 18 17 15 13 12 11 9 8 7 13 16 15 16 16 17 25 34 50 51 55 59 59
49 50 50 50 50 50 49 31 28 24 21 23 25 32 26 24 22 22 27 23 19 15 15 13 16 13 14 13 9 5 5 7 9 17 17 18 17 17 22 30 52 53 57 59 60
49 49 50 50 49 47 30 27 28 23 21 19 16 16 22 20 22 21 22 24 18 17 16 13 17 17 15 11 6 5 5 7 12 14 13 15 19 20 20 34 55 55 56 59 61
49 49 49 49 38 33 29 29 24 24 22 14 11 11 15 15 13 17 22 22 16 16 14 14 16 15 14 14 7 6 15 14 13 11 11 19 13 17 29 32 40 56 56 60 62
48 49 49 48 40 29 26 21 23 26 16 9 8 14 11 10 13 14 22 21 17 16 19 18 15 14 14 10 9 10 18 20 19 14 13 13 15 24 29 36 42 51 54 61 64
48 48 48 46 45 35 28 23 24 22 15 8 12 8 7 8 10 13 21 19 18 18 24 20 21 17 14 10 11 13 15 17 18 16 13 21 21 25 27 38 44 46 46 60 63
47 47 47 44 34 31 27 22 20 18 10 6 11 8 5 5 7 9 21 18 18 21 23 25 20 19 17 14 15 17 16 16 15 18 18 24 20 24 29 36 38 41 58 58 63
46 47 46 42 30 30 29 23 19 14 9 10 11 11 10 7 7 7 20 21 20 22 23 23 20 16 15 14 18 19 17 17 14 15 18 25 20 29 36 39 43 52 55 59 62
46 44 40 38 41 34 26 20 18 19 11 10 9 10 9 8 6 6 17 22 23 22 22 23 22 23 17 17 16 15 14 18 15 18 17 17 32 31 41 41 40 44 50 59 61
44 37 35 33 33 26 23 19 17 16 13 11 10 8 10 6 4 6 13 18 21 22 23 21 21 17 17 17 17 16 19 14 19 18 17 21 29 27 38 37 37 40 44 55 60
45 37 29 30 29 25 17 16 16 17 17 11 10 12 13 16 10 8 8 17 19 19 21 20 23 22 21 17 16 18 15 18 16 16 13 14 22 38 34 41 42 44 49 55 58
42 35 34 27 23 21 15 13 12 13 13 12 11 11 14 17 21 12 9 16 17 18 19 21 22 19 21 21 19 19 18 24 23 18 24 26 30 42 41 46 48 50 57 54 57
40 39 31 25 15 14 14 10 10 9 10 12 12 10 10 17 21 27 17 15 18 26 25 26 21 17 17 19 21 23 23 14 19 26 16 17 27 42 47 48 52 55 59 56 57
40 35 29 27 22 17 19 22 20 12 11 12 13 13 11 16 19 20 22 16 16 21 24 26 27 29 18 23 24 21 21 21 21 20 19 22 32 39 41 38 38 45 50 54 59
41 37 34 22 19 17 19 22 22 16 14 13 16 12 12 17 22 18 20 21 15 18 18 26 24 27 26 23 21 21 22 22 22 24 21 17 33 42 41 35 40 40 52 52 57
36 31 33 33 32 17 26 17 22 21 16 11 14 16 15 17 19 30 33 35 34 22 19 24 25 25 25 27 24 23 23 23 21 16 15 34 39 48 49 46 44 46 49 52 54
38 33 32 32 30 25 25 24 19 21 23 21 16 22 20 36 36 33 31 32 36 35 37 28 31 25 22 27 27 24 26 26 26 33 33 21 40 48 48 49 47 41 38 48 54
Wind_Speed
19 19 19 18 18 18 18 19 19 19 18 18 17 16 15 17 20 2 4 3 2 7 11 13 18 15 16 10 14 9 11 11 12 19 11 14 32 26 21 18 14 6 22 26 24
20 20 20 19 19 19 19 19 19 21 20 18 16 15 14 14 4 7 4 3 2 5 7 11 16 17 10 12 2 6 12 14 14 15 7 11 31 17 7 16 17 24 25 24 24
20 21 20 20 20 20 20 20 20 21 21 19 16 14 11 10 3 3 3 3 3 2 6 12 16 17 15 10 3 9 3 2 10 7 10 15 19 14 19 11 12 28 27 24 24
21 22 22 22 21 21 21 21 22 22 22 20 17 12 11 2 3 3 5 2 3 3 11 12 11 11 8 12 10 8 13 4 4 2 10 12 8 11 20 14 21 23 29 22 22
22 22 22 23 23 23 23 22 22 23 22 19 17 13 1 3 5 5 6 5 3 4 10 14 15 14 12 11 7 6 15 17 7 3 4 1 11 8 18 20 23 20 27 23 20
22 22 23 23 24 24 24 24 22 23 21 17 14 11 3 6 9 11 8 6 11 13 17 10 11 16 10 15 8 9 11 9 12 12 3 14 8 18 17 27 23 22 25 23 22
23 24 24 25 25 25 25 25 24 23 20 15 11 6 4 12 14 15 13 13 14 10 12 9 8 13 17 16 14 10 5 16 17 18 6 8 5 6 14 30 29 26 24 23 22
23 24 25 26 26 27 27 27 26 22 18 11 8 3 7 4 3 15 15 17 6 11 13 10 6 11 8 11 11 9 12 18 9 7 8 8 4 11 12 26 26 26 25 22 23
24 25 26 26 27 28 30 34 28 17 13 11 4 2 8 1 5 10 13 14 12 9 11 9 5 8 10 12 13 10 19 17 4 13 9 3 5 11 18 20 22 23 18 23 24
25 26 27 28 27 27 33 33 10 9 4 6 9 6 7 10 10 14 13 14 4 8 9 10 5 7 11 12 15 11 4 9 11 10 10 6 9 14 18 19 24 22 22 26 25
25 26 27 29 29 24 20 8 3 3 3 9 5 9 8 9 10 11 13 3 11 8 12 12 6 12 21 19 7 11 13 14 5 7 5 3 9 17 11 16 24 23 23 24 24
26 27 28 30 30 27 5 4 9 9 11 17 22 23 23 8 6 9 11 7 11 12 14 12 19 20 16 2 6 9 12 15 13 4 8 6 11 20 11 14 29 25 23 23 20
26 27 28 32 34 10 7 12 12 14 6 12 19 16 19 7 12 14 16 14 13 15 17 18 15 16 3 6 8 7 10 16 8 11 14 11 17 20 13 19 24 22 21 22 24
27 27 28 35 8 11 6 5 10 16 5 8 10 20 21 10 12 24 21 13 8 16 18 14 20 8 3 6 7 14 12 3 8 8 12 11 18 18 12 18 20 25 20 24 26
27 27 28 12 11 7 10 18 11 6 3 8 16 12 12 16 3 11 20 16 19 19 9 14 9 9 5 11 12 12 6 9 11 13 13 21 13 5 13 13 17 20 11 26 25
27 25 26 5 4 13 19 18 8 1 8 1 8 12 19 18 20 10 14 13 14 19 17 20 15 6 8 11 8 8 9 7 13 12 17 10 3 1 5 8 11 29 15 25 25
30 25 14 9 5 16 19 7 2 6 7 7 11 17 19 18 23 18 18 18 17 9 14 14 13 6 9 9 9 3 8 7 5 4 11 4 1 6 12 22 16 25 27 23 24
34 31 9 12 12 14 9 2 5 10 17 11 8 21 22 19 21 21 20 17 20 18 11 15 13 20 12 11 5 11 14 9 6 10 7 3 8 3 24 21 36 9 22 23 23
35 1 4 10 17 10 2 6 8 7 3 17 20 18 18 22 12 19 18 21 19 23 20 7 14 15 18 9 10 4 9 11 12 10 14 7 4 2 19 13 18 16 26 25 23
9 6 12 10 16 8 4 6 14 13 15 14 17 7 5 21 23 22 18 19 20 23 23 21 16 6 13 4 1 2 5 5 5 7 12 8 1 7 13 14 13 15 21 15 23
2 4 12 17 10 5 8 11 10 19 22 8 16 10 8 19 16 17 22 18 25 23 24 21 13 16 2 4 9 8 12 6 8 6 9 14 9 10 15 18 15 17 16 21 24
6 3 10 12 6 6 11 3 5 19 23 4 9 10 11 13 11 16 15 4 8 26 19 20 6 11 12 12 19 17 15 9 3 8 8 5 5 8 9 19 11 21 39 18 25
6 6 5 7 6 14 12 15 21 24 25 3 7 10 13 8 7 16 4 11 20 11 6 6 4 5 12 13 9 4 8 4 6 5 16 13 8 9 10 15 21 21 19 15 25
5 4 2 9 12 12 10 13 18 20 18 6 16 14 14 7 8 9 14 7 10 10 9 5 3 1 11 2 3 3 10 13 9 10 15 11 10 5 9 5 7 6 4 19 11
5 5 7 6 10 17 14 14 20 16 7 7 9 13 12 4 11 9 7 9 2 5 4 4 2 6 12 14 16 20 17 17 19 20 19 21 16 15 8 8 8 3 17 13 13
6 7 10 16 14 15 12 20 15 17 8 9 10 13 10 7 10 10 14 8 7 3 3 4 2 4 10 10 14 21 26 24 19 18 13 18 12 13 8 10 10 4 10 12 16
9 10 8 13 12 6 6 10 6 12 10 11 18 6 8 16 17 11 8 9 5 5 7 2 1 3 13 11 17 16 15 9 13 23 14 11 13 17 17 17 7 8 13 13 14
Wind_Direction
11 7 4 1 358 353 352 341 336 331 330 324 326 323 324 320 309 193 256 232 304 334 334 302 291 268 254 263 244 137 119 243 224 249 130 127 98 104 109 86 57 71 146 146 142
7 3 360 356 355 349 345 335 333 330 326 322 325 323 323 326 294 246 212 209 290 334 305 301 321 324 287 265 332 142 182 202 218 280 80 138 130 129 92 110 96 100 119 140 145
5 0 355 354 351 343 341 334 333 325 321 320 326 321 317 319 320 175 181 237 291 287 259 287 287 290 286 268 196 120 204 287 297 343 8 29 107 129 136 166 160 142 144 154 152
3 357 351 350 345 341 336 331 329 325 318 323 323 318 311 220 49 171 160 189 259 295 277 279 268 267 277 289 138 168 233 215 199 98 20 32 336 152 157 182 166 154 149 157 163
358 353 349 346 341 336 332 328 329 322 318 323 324 325 310 292 246 157 152 182 241 251 244 276 297 286 306 324 153 269 218 229 246 259 165 242 26 7 135 144 152 149 152 161 164
355 350 347 343 336 333 328 324 323 318 317 322 329 321 328 301 127 149 186 177 234 237 278 275 322 337 305 318 351 358 354 348 317 294 66 75 35 65 132 152 158 164 157 166 168
353 348 343 339 334 330 324 319 317 316 311 313 327 314 283 244 141 165 215 226 241 259 298 311 353 333 325 317 321 281 304 283 251 252 142 110 32 138 142 148 153 157 167 174 169
348 344 341 335 330 327 322 317 309 305 297 303 312 300 265 210 323 172 212 250 240 269 278 309 341 305 282 293 315 294 251 263 325 235 152 127 225 218 217 148 158 165 176 173 160
346 342 337 332 329 328 323 313 304 288 267 288 294 221 273 21 238 220 222 241 215 243 265 281 306 253 294 265 274 272 259 252 111 274 287 130 207 215 187 166 160 161 157 145 147
344 340 334 330 328 328 323 308 289 312 242 241 266 305 256 231 191 214 216 251 274 243 260 246 247 248 277 266 252 294 303 307 163 233 229 193 308 175 158 150 150 140 141 140 145
342 338 333 328 324 329 343 348 327 40 215 232 192 254 299 221 123 198 198 189 266 259 253 256 228 249 250 249 286 2 340 334 311 149 134 35 283 286 196 158 147 147 142 143 145
340 336 331 327 320 319 294 282 17 313 299 278 262 254 260 156 201 227 197 196 225 244 241 268 238 252 271 47 14 341 323 307 307 157 137 208 259 274 252 160 152 150 148 147 146
337 335 332 326 317 308 235 269 315 307 277 281 234 239 240 182 242 220 200 208 240 228 254 238 256 233 338 350 337 309 276 286 318 1 339 311 273 256 260 130 147 151 154 157 147
334 333 334 331 320 335 278 342 342 332 296 262 209 229 211 188 247 243 190 195 231 245 245 254 256 233 295 276 266 266 280 256 11 335 293 316 304 289 202 141 127 150 164 142 141
331 330 328 321 301 301 336 336 344 308 307 222 203 167 178 189 243 211 185 195 241 257 238 257 251 263 200 259 238 259 6 357 332 311 307 295 306 343 130 124 113 111 200 150 147
326 326 332 95 214 253 289 304 313 236 241 210 124 183 191 203 236 236 159 187 235 254 272 256 296 242 200 238 277 329 333 324 289 272 276 283 312 12 66 155 140 162 200 147 147
322 315 310 298 222 333 327 321 159 231 278 213 160 175 206 194 223 238 179 190 226 233 264 287 246 246 267 245 230 164 292 287 301 280 244 241 346 241 199 200 179 180 145 147 143
319 310 255 219 262 312 288 230 207 234 249 285 246 188 198 211 210 239 178 194 221 244 229 232 245 228 195 230 217 200 213 228 285 297 281 271 251 64 82 56 46 98 139 128 135
318 271 231 245 222 256 273 208 206 236 199 301 309 194 196 212 201 220 192 202 207 227 243 276 257 274 194 175 210 266 264 250 275 307 308 277 81 89 31 64 71 59 336 136 145
322 290 244 198 171 195 216 252 233 267 312 323 312 168 232 202 215 197 207 206 224 217 224 253 288 14 145 134 223 244 293 330 326 294 278 306 185 192 54 74 115 162 253 214 156
259 275 118 140 162 202 212 227 270 273 285 317 339 343 332 316 240 202 208 210 211 232 217 227 233 276 234 128 232 251 244 241 241 243 278 301 301 197 189 177 170 205 306 203 161
306 270 185 140 170 213 243 246 266 280 301 309 312 300 305 339 319 214 203 250 274 211 229 206 177 255 262 206 202 221 234 226 199 298 297 293 276 162 177 108 92 322 347 222 157
310 274 182 196 226 236 250 250 258 268 278 229 277 301 307 343 338 360 81 38 38 56 48 343 136 248 305 316 317 46 329 239 314 314 290 292 276 163 143 167 137 120 275 3 144
279 232 173 208 251 275 291 293 271 259 260 335 302 298 299 302 309 326 351 26 57 77 52 30 73 67 240 307 274 312 319 303 259 265 279 280 132 131 103 39 7 164 214 39 353
238 301 13 218 229 237 256 280 300 272 195 264 323 279 302 342 324 283 306 320 7 52 54 53 27 10 329 338 326 315 297 263 262 253 249 260 165 191 177 214 294 260 31 13 358
328 353 337 303 306 194 254 259 281 310 154 229 264 289 304 290 315 28 13 38 35 98 87 32 350 347 303 307 303 299 300 301 307 289 290 103 114 141 76 74 71 17 333 285 328
354 341 311 289 310 283 324 310 289 308 314 281 204 266 275 6 348 350 12 17 41 24 40 90 145 240 266 300 301 299 273 298 339 15 342 297 172 161 143 154 117 177 197 261 301